Home > Weather > Qadian > Past weeks

Flag for India Weather for the Past 2 Weeks in Qadian, Punjab, India

Now
97 °F

Clear.


Feels Like: 93 °F
Forecast: 76 / 109 °F
Wind: 2 mph from North

Location: Amritsar Airport

Current Time: May 1, 2016 at 10:51:12 AM

Latest Report: May 1, 2016 at 10:00 AM


Visibility: 2 mi

Pressure: 29.68 "Hg

Humidity: 18%

Dew Point: 46 °F

Location of QadianLocation

Historic Weather in Qadian — Graph

°F

Qadian Temperature Yesterday

Maximum temperature yesterday: 106 °F (at 4:00 PM)
Minimum temperature yesterday: 64 °F (at 6:00 AM)
Average temperature yesterday: 88 °F

High & Low Weather Summary for the Past Weeks

 TemperatureHumidityPressure
High106 °F (Apr 30, 4:00 PM)83% (Apr 18, 6:30 AM)29.86 "Hg (Apr 18, 6:30 AM)
Low61 °F (Apr 23, 5:30 AM)7% (Apr 29, 4:30 PM)29.53 "Hg (Apr 17, 1:00 AM)
Average84 °F33%29.72 "Hg
* Reported Apr 16 9:30 AM — May 1 9:30 AM, Qadian, Weather by CustomWeather, © 2016

Note: Actual official high and low records may vary slightly from our data, if they occured in-between our weather recording intervals... More about our weather records

Advertising

Qadian Weather History for the Previous 24 Hours

Scroll right to see more
 ConditionsComfort  
Time TempWeatherWind HumidityBarometerVisibility
9:30 AM
Sun, May 1
93 °FClear.2 mph21%29.68 "Hg2 mi
8:30 AM86 °FClear.No wind33%29.68 "Hg1 mi
8:00 AM84 °FClear.No wind33%29.68 "Hg1 mi
7:30 AM81 °FClear.2 mph42%29.65 "Hg1 mi
7:00 AM75 °FHaze.No wind50%29.65 "Hg1 mi
6:30 AM72 °FHaze.No wind53%29.65 "Hg1 mi
6:00 AM73 °FDuststorm.2 mph50%29.65 "Hg2 mi
5:30 AM70 °FDuststorm.No wind57%29.65 "Hg2 mi
5:00 AM72 °FDuststorm.No wind53%29.65 "Hg2 mi
4:30 AM73 °FDuststorm.No wind50%29.65 "Hg2 mi
4:00 AM73 °FDuststorm.No wind47%29.65 "Hg2 mi
3:30 AM75 °FDuststorm.No wind41%29.65 "Hg2 mi
3:00 AM75 °FDuststorm.No wind41%29.65 "Hg2 mi
2:30 AM75 °FDuststorm.No wind44%29.65 "Hg2 mi
2:00 AM77 °FDuststorm.No wind39%29.65 "Hg2 mi
1:30 AM77 °FDuststorm.No wind42%29.65 "Hg2 mi
1:00 AM77 °FDuststorm.No wind42%29.65 "Hg2 mi
12:30 AM77 °FDuststorm.No wind39%29.68 "Hg2 mi
12:00 AM79 °FDuststorm.No wind37%29.68 "Hg2 mi
11:30 PM
Sat, Apr 30
81 °FDuststorm.No wind34%29.68 "Hg2 mi
11:00 PM81 °FDuststorm.No wind34%29.68 "Hg2 mi
10:30 PM82 °FDuststorm.No wind32%29.68 "Hg2 mi
10:00 PM82 °FDuststorm.No wind30%29.68 "Hg2 mi
9:30 PM82 °FDuststorm.No wind30%29.68 "Hg2 mi
9:00 PM84 °FDuststorm.No wind29%29.68 "Hg2 mi
8:30 PM86 °FDuststorm.No wind27%29.65 "Hg4 mi
8:00 PM90 °FDuststorm.No wind21%29.65 "Hg4 mi
7:30 PM91 °FDuststorm.No wind20%29.65 "Hg4 mi
7:00 PM95 °FClear.2 mph16%29.65 "Hg4 mi
6:30 PM99 °FClear.5 mph15%29.65 "Hg4 mi
6:00 PM100 °FClear.10 mph11%29.65 "Hg4 mi
5:30 PM102 °FClear.10 mph10%29.65 "Hg4 mi
5:00 PM104 °FClear.12 mph9%29.65 "Hg4 mi
4:30 PM106 °FClear.15 mph8%29.65 "Hg4 mi
4:00 PM106 °FClear.15 mph8%29.65 "Hg4 mi
3:30 PM104 °FClear.10 mph9%29.68 "Hg4 mi
3:00 PM104 °FClear.12 mph8%29.68 "Hg4 mi
2:30 PM104 °FClear.14 mph7%29.68 "Hg4 mi
2:00 PM104 °FClear.12 mph7%29.71 "Hg4 mi
1:30 PM104 °FClear.9 mph7%29.71 "Hg4 mi
1:00 PM102 °FClear.9 mph8%29.71 "Hg4 mi
12:30 PM102 °FClear.9 mph9%29.74 "Hg4 mi
12:00 PM102 °FClear.9 mph8%29.74 "Hg4 mi
11:30 AM99 °FClear.9 mph10%29.74 "Hg4 mi
11:00 AM99 °FDuststorm.7 mph11%29.74 "Hg2 mi
10:30 AM97 °FDuststorm.3 mph14%29.77 "Hg2 mi
10:00 AM95 °FDuststorm.2 mph12%29.77 "Hg2 mi
Weather by CustomWeather, © 2016

See weather overviewHow to use our weather pages